Wetbulb
55.73 54.03 51.18 53.09 57.59 59.00 62.32 64.77 64.93 65.97 67.09 67.56 66.51 71.61 73.37 74.42 72.52 72.56 72.94 75.48 77.16 78.20 77.85 77.47 77.09 76.66 76.68 77.08 77.16 77.06 76.66 76.18
51.83 51.93 55.31 56.40 57.72 57.77 59.31 62.99 64.45 65.82 65.41 69.17 71.34 72.62 74.85 73.95 72.04 71.90 71.66 76.21 77.29 77.82 77.87 77.49 77.29 77.06 77.11 77.16 77.06 76.89 76.56 75.93
49.66 51.22 55.33 58.82 58.52 57.97 56.75 61.02 63.84 64.95 64.94 67.99 72.32 75.64 75.08 73.52 72.41 70.82 71.95 75.86 76.37 77.54 77.66 77.67 77.27 77.26 77.06 77.03 76.96 76.79 76.43 75.98
48.53 51.38 54.94 57.87 59.18 58.42 57.68 58.07 64.14 63.81 66.13 68.29 73.53 74.49 73.57 73.49 72.20 71.26 75.34 75.01 75.54 77.27 77.39 77.31 77.31 77.19 77.08 76.83 76.66 76.53 76.16 75.96
50.21 50.70 52.31 55.36 58.99 57.51 58.16 58.14 58.50 66.13 65.52 69.13 72.18 73.92 73.48 73.26 72.23 71.79 74.75 73.63 74.57 75.20 76.72 77.08 77.08 76.80 76.58 76.50 76.28 76.23 75.78 75.88
51.12 50.23 50.78 56.10 56.53 57.26 58.51 59.55 63.49 67.26 63.16 62.37 72.08 75.14 75.05 73.96 72.54 72.02 72.59 72.00 72.54 73.74 74.07 75.35 75.55 76.71 76.48 76.28 76.25 75.88 75.63 75.58
50.38 51.00 52.37 56.56 54.82 57.70 59.48 60.92 61.52 65.83 62.97 62.55 69.95 74.70 74.07 73.42 72.48 71.76 71.77 71.01 70.61 70.72 71.24 71.32 72.34 74.93 76.11 75.80 75.86 76.06 75.25 75.48
53.28 54.26 53.55 55.62 55.71 56.26 56.68 56.67 59.71 63.77 68.77 65.75 73.35 73.08 72.09 72.04 71.64 71.12 70.68 70.88 70.51 70.07 70.26 70.35 70.96 73.68 73.27 73.44 73.43 73.13 72.46 73.66
53.96 55.54 55.60 54.99 54.91 56.81 55.60 54.56 58.66 61.17 68.06 69.96 71.85 72.29 71.98 71.80 71.97 71.59 71.36 71.43 70.83 71.68 70.87 70.23 70.70 72.51 72.01 72.41 72.38 72.30 72.63 73.23
54.02 55.30 54.69 53.71 55.52 53.99 55.89 56.50 62.63 66.48 68.66 69.57 69.77 70.66 71.29 70.74 70.51 71.80 71.45 71.15 71.52 73.25 72.65 73.74 72.95 72.16 70.85 71.67 72.06 72.29 72.98 74.28
54.91 54.49 54.58 54.93 53.46 53.85 55.13 57.97 61.53 65.94 67.32 68.69 68.60 70.46 71.22 71.12 70.75 72.24 71.17 71.69 71.79 73.60 75.55 76.39 78.14 73.35 71.61 71.85 72.09 72.86 73.43 74.90
53.58 54.06 54.09 52.43 52.88 54.37 55.25 57.78 59.08 63.55 62.80 66.77 67.76 69.42 71.77 73.34 69.52 72.64 72.07 72.78 73.43 73.92 76.21 75.47 77.78 79.71 75.91 75.46 74.88 74.77 74.91 74.91
53.68 53.85 53.22 53.99 51.05 51.59 55.64 57.43 56.60 60.81 60.92 61.43 67.44 68.53 70.58 71.77 74.63 74.64 74.11 73.81 74.81 75.09 76.31 76.66 77.34 78.84 78.41 75.91 75.22 76.22 75.92 78.25
52.97 53.87 53.92 53.10 47.89 53.41 56.09 56.15 55.57 57.93 58.91 59.50 66.57 67.99 70.86 72.05 73.80 76.81 75.13 75.51 75.79 73.56 76.31 77.01 77.78 77.49 77.05 76.37 77.60 74.89 75.73 75.41
50.73 54.79 53.90 52.61 49.43 53.35 56.26 55.96 55.87 57.04 57.36 57.78 59.50 67.62 70.41 70.55 72.63 76.35 78.39 77.00 76.88 78.02 75.47 76.33 77.51 77.35 76.64 77.34 76.66 77.30 76.46 75.58
49.80 52.88 53.18 51.49 50.96 53.06 54.94 54.85 55.97 56.32 56.96 57.79 58.56 65.03 67.83 69.19 70.70 72.44 77.79 78.67 77.98 78.16 79.43 77.00 76.17 76.84 76.46 74.54 76.03 75.36 75.33 76.12
51.63 53.87 52.36 51.69 51.48 52.64 54.90 55.02 55.52 56.14 57.37 58.66 60.83 64.21 66.88 68.57 69.39 70.14 72.23 79.31 79.00 78.17 79.53 79.08 75.88 74.29 74.25 73.55 74.25 74.76 75.05 76.99
51.71 53.08 51.82 51.48 51.00 53.39 54.77 55.43 56.36 56.26 56.97 58.00 61.68 63.66 65.55 67.91 69.42 70.14 70.85 73.34 75.41 78.64 79.45 78.71 77.38 77.62 76.66 75.13 75.30 75.17 75.23 75.27
49.07 51.76 52.52 51.62 49.60 51.65 54.48 56.71 57.58 58.48 59.67 60.39 60.74 62.98 64.42 65.75 68.47 69.74 70.31 71.18 72.15 73.35 74.03 76.73 78.48 78.38 78.33 77.93 78.15 76.44 74.92 74.93
50.06 48.70 44.93 51.85 43.99 51.15 53.40 54.77 56.79 57.85 59.34 60.13 62.00 63.31 63.86 64.90 66.12 68.05 69.09 71.11 72.51 72.77 72.75 72.36 75.45 76.59 76.82 75.40 73.15 74.17 74.95 74.42
MSLP
1005.65 1004.18 1002.34 1001.63 1000.09 999.59 1001.82 1001.03 1000.78 1001.60 1002.54 1003.69 1004.62 1004.89 1005.40 1005.95 1006.89 1008.44 1009.88 1010.65 1012.01 1012.78 1013.21 1013.60 1014.22 1014.85 1015.24 1015.47 1015.72 1016.05 1016.30 1016.55
1004.85 1002.95 1001.31 1001.09 999.65 999.58 999.66 1000.14 1000.57 1001.10 1003.01 1004.63 1005.29 1004.97 1005.50 1006.10 1007.07 1008.52 1009.61 1010.76 1012.20 1012.79 1013.41 1013.92 1014.31 1014.89 1015.34 1015.68 1015.96 1016.22 1016.44 1016.71
1003.59 1002.07 1000.80 1001.30 999.50 999.97 999.59 999.56 999.16 1000.94 1002.76 1004.65 1005.72 1005.50 1005.89 1006.40 1007.27 1008.09 1009.24 1011.06 1012.25 1012.76 1013.47 1014.04 1014.46 1014.93 1015.31 1015.76 1016.07 1016.37 1016.65 1016.80
1002.79 1000.78 999.80 999.10 999.44 999.96 999.71 999.56 999.80 1000.96 1002.48 1004.72 1005.76 1005.96 1006.37 1006.73 1007.41 1007.95 1009.48 1011.04 1012.38 1013.04 1013.46 1013.99 1014.56 1015.04 1015.32 1015.86 1016.18 1016.51 1016.74 1016.98
1002.48 1000.69 999.32 998.58 999.19 1000.02 999.85 999.68 999.90 1000.67 1002.56 1005.40 1005.94 1006.14 1006.50 1006.90 1007.30 1007.89 1009.45 1010.95 1012.35 1012.88 1013.63 1014.12 1014.56 1015.17 1015.49 1015.83 1016.36 1016.63 1016.85 1017.04
1002.73 1001.09 999.58 998.94 999.54 1000.23 1000.05 999.99 1000.04 1001.29 1005.05 1007.23 1006.48 1006.71 1006.57 1006.93 1007.37 1008.05 1009.25 1010.88 1012.04 1012.86 1013.38 1013.98 1014.47 1015.06 1015.52 1015.78 1016.30 1016.72 1016.93 1017.02
1002.70 1001.13 999.93 999.41 999.60 1000.02 1000.34 1000.49 1000.68 1001.91 1005.08 1006.24 1006.69 1006.75 1006.43 1006.37 1007.13 1007.90 1008.97 1010.40 1011.38 1012.18 1012.84 1013.29 1013.93 1014.69 1015.36 1015.85 1016.21 1016.58 1016.93 1017.13
1002.22 1000.88 1000.45 999.58 1000.05 1000.35 1000.50 1000.86 1001.10 1001.90 1004.30 1005.88 1006.00 1006.13 1005.76 1005.85 1006.62 1007.50 1008.50 1009.70 1010.63 1011.48 1012.20 1012.46 1013.14 1014.13 1015.04 1015.56 1015.79 1016.20 1016.41 1016.90
1001.86 1001.48 1001.10 1000.83 1000.59 1001.03 1000.78 1000.80 1000.73 1000.98 1002.09 1003.51 1004.40 1004.87 1004.82 1005.06 1005.65 1006.63 1007.91 1008.80 1009.90 1010.92 1011.66 1011.73 1012.16 1013.69 1014.43 1014.99 1015.26 1015.76 1015.85 1016.30
1002.49 1002.11 1001.79 1001.69 1001.90 1001.55 1000.95 1000.88 1000.68 1001.52 1001.77 1003.44 1004.16 1004.10 1004.00 1004.05 1004.71 1003.50 1006.89 1008.26 1009.39 1010.32 1011.25 1011.49 1011.93 1013.01 1013.65 1013.95 1014.59 1015.01 1015.24 1015.70
1002.42 1002.39 1002.36 1002.39 1002.09 1001.71 1001.41 1001.07 1000.67 1002.29 1005.40 1002.82 1003.63 1003.91 1003.85 1003.82 1003.86 1002.09 1005.43 1007.73 1008.81 1010.02 1011.03 1011.51 1012.14 1012.44 1013.01 1013.32 1013.73 1014.09 1014.49 1015.02
1002.63 1002.28 1002.33 1002.41 1002.08 1001.81 1001.75 1001.20 1000.72 1001.11 1002.38 1002.54 1003.13 1003.50 1004.07 1004.05 1004.15 1004.43 1005.83 1007.59 1008.64 1009.82 1010.82 1011.42 1011.93 1012.11 1012.37 1012.68 1012.88 1013.21 1013.66 1014.14
1002.46 1002.34 1002.04 1002.09 1001.70 1001.36 1001.42 1000.99 1001.13 1001.18 1001.69 1001.89 1002.25 1003.10 1003.79 1004.35 1004.79 1005.21 1006.15 1007.45 1008.60 1009.55 1010.51 1011.32 1011.83 1011.98 1012.11 1012.27 1012.39 1012.74 1013.06 1013.41
1001.95 1001.57 1001.63 1002.08 1001.05 1000.90 1000.97 1000.83 1000.93 1000.94 1001.68 1002.08 1002.43 1003.06 1003.69 1004.17 1004.77 1005.23 1006.03 1007.20 1008.18 1009.01 1010.23 1011.06 1011.62 1011.95 1012.03 1012.06 1012.14 1012.58 1012.76 1013.01
1001.14 1000.62 1000.33 1001.03 1000.99 1000.81 1000.45 1000.43 1000.86 1000.90 1001.72 1002.08 1002.58 1003.26 1004.66 1005.08 1005.82 1006.30 1006.95 1007.22 1008.09 1008.87 1009.68 1010.62 1011.39 1011.73 1012.00 1011.96 1012.08 1012.25 1012.53 1012.67
1000.55 1000.17 999.96 1000.47 1000.44 1000.68 1000.57 999.92 1000.17 1000.88 1001.52 1002.18 1002.82 1004.54 1005.44 1005.88 1007.08 1007.14 1007.18 1007.43 1008.11 1008.97 1009.62 1010.37 1010.97 1011.57 1011.77 1012.01 1011.92 1011.93 1012.01 1011.98
1001.10 1000.24 1000.00 1000.05 1000.34 1000.22 1000.20 999.85 999.99 1000.76 1001.88 1002.82 1003.45 1005.05 1006.15 1006.66 1006.71 1007.28 1007.32 1007.66 1008.35 1009.20 1009.66 1010.20 1010.71 1011.25 1011.60 1011.50 1011.54 1011.55 1011.62 1011.56
1002.02 1001.38 1000.87 1000.34 1000.06 1000.38 999.90 999.93 1000.40 1001.13 1001.99 1002.97 1004.26 1005.52 1006.63 1007.26 1007.57 1007.86 1008.17 1008.51 1009.02 1009.33 1009.73 1010.06 1010.29 1010.58 1010.77 1010.99 1010.87 1010.88 1010.94 1011.07
1002.41 1001.74 1000.95 1000.68 1000.28 1000.40 1000.03 1000.19 1000.88 1001.64 1002.39 1003.47 1004.47 1006.02 1007.19 1007.68 1008.16 1008.65 1008.98 1009.37 1009.75 1009.98 1010.34 1010.40 1010.30 1010.46 1010.44 1010.51 1010.49 1010.29 1010.19 1010.38
1002.56 1002.24 1001.31 1000.82 999.91 1000.15 1000.23 1000.48 1001.22 1002.14 1003.30 1004.24 1005.08 1006.36 1007.54 1008.25 1008.87 1009.33 1009.75 1010.27 1010.49 1010.60 1010.62 1010.58 1010.55 1010.50 1010.51 1010.35 1010.36 1010.13 1010.02 1009.79
Wind_Speed
6 12 13 6 24 13 35 8 4 10 12 5 5 8 12 15 22 22 17 16 16 15 15 16 16 15 14 13 13 13 13 12
9 16 14 15 6 10 2 9 5 8 11 8 4 4 13 17 22 20 18 19 17 17 16 16 17 16 14 13 12 12 12 11
16 19 18 18 4 4 8 9 15 6 9 9 5 8 15 19 18 18 19 18 17 18 17 16 16 15 14 13 12 12 11 11
14 18 14 5 5 5 7 9 13 9 12 10 12 14 14 16 16 18 21 17 16 16 17 16 15 14 14 12 12 11 11 11
18 20 21 4 9 6 10 8 9 8 16 11 14 15 13 12 12 18 21 18 13 15 14 15 14 13 13 12 10 10 10 10
18 17 18 10 6 7 7 11 3 5 11 3 11 13 14 15 12 16 17 17 14 12 14 13 12 14 12 12 11 10 9 10
20 21 15 9 4 9 2 10 5 9 20 20 19 15 15 15 15 15 15 17 15 15 13 13 13 12 12 13 12 10 9 9
22 18 18 4 6 11 3 8 13 9 31 28 22 16 16 13 13 16 17 18 16 14 14 14 12 13 9 10 8 8 9 9
20 14 13 15 7 7 10 12 14 15 22 20 19 15 17 18 18 17 15 13 17 13 13 13 11 9 6 6 6 7 9 9
22 13 11 12 13 14 10 15 7 23 16 19 14 15 16 15 12 25 17 14 16 14 11 8 9 9 9 8 7 7 8 10
16 12 16 12 16 16 12 19 10 22 26 22 10 13 10 8 15 15 17 15 15 13 8 5 4 9 8 7 8 9 9 10
20 13 16 16 18 15 15 21 13 3 6 11 14 10 8 5 7 11 14 12 11 14 11 8 5 3 5 6 6 6 7 9
16 15 17 15 20 19 18 13 19 7 5 11 11 12 10 6 4 8 11 14 8 12 14 9 7 4 3 5 5 3 4 8
16 21 18 16 20 18 16 12 20 11 10 10 10 11 11 10 8 5 11 13 10 11 15 11 7 5 4 4 3 6 4 5
20 20 18 19 20 18 15 16 16 10 10 10 9 9 13 12 11 9 5 10 8 6 11 14 8 6 6 6 5 3 4 6
17 16 11 14 17 16 18 19 18 15 10 11 9 16 11 10 11 6 7 8 8 6 4 11 9 5 4 7 5 7 7 6
20 16 12 14 15 19 15 19 10 6 9 11 7 13 12 9 9 8 6 1 8 9 7 5 7 8 8 8 7 6 6 7
18 22 19 17 14 17 18 11 9 11 7 5 11 11 10 8 8 7 6 4 5 3 5 7 6 5 7 9 8 8 7 8
21 22 20 18 20 17 22 10 9 3 7 7 5 12 8 8 8 8 7 6 4 4 5 6 7 5 5 5 4 4 7 7
21 19 15 18 15 18 20 15 12 12 9 9 12 14 11 9 9 9 11 9 7 4 4 4 4 6 8 6 7 6 5 6
Wind_Direction
230 248 256 241 266 73 162 162 103 109 86 43 53 30 137 126 124 121 132 132 125 130 130 132 133 137 141 141 139 136 134 133
255 267 277 307 219 25 119 136 124 90 92 91 9 108 131 139 129 136 144 124 134 130 132 138 139 142 144 144 143 141 137 138
268 269 267 192 99 357 305 131 144 104 123 96 92 90 124 138 134 147 140 128 138 134 138 141 144 146 145 149 145 145 144 145
264 261 246 167 46 322 297 308 111 138 120 105 138 127 139 150 149 144 120 138 140 137 139 145 148 151 147 150 150 148 149 148
277 289 299 179 97 300 273 282 277 126 91 111 140 136 149 151 160 135 126 130 145 145 146 145 147 151 150 149 150 152 152 148
286 281 289 78 75 287 312 298 87 27 93 355 124 151 155 155 164 132 131 135 149 149 153 158 155 153 152 145 153 157 155 149
265 265 279 160 150 262 292 311 45 76 127 180 234 173 168 161 163 147 144 141 155 160 161 169 159 157 148 157 160 159 160 163
259 277 335 79 62 306 173 255 265 145 141 178 169 180 174 165 162 156 157 154 156 162 162 174 159 147 170 175 177 184 180 177
275 339 322 336 354 308 282 277 233 207 155 148 156 172 181 174 169 168 169 153 158 164 164 181 165 150 171 172 186 191 190 173
274 304 303 287 288 280 284 269 10 20 128 141 162 170 200 185 188 158 159 160 156 158 165 199 139 158 175 182 185 186 196 176
269 267 281 281 273 276 289 269 279 115 139 201 158 163 216 199 143 137 142 157 164 150 152 175 156 166 177 203 178 188 182 179
269 259 263 254 263 262 261 266 275 217 169 149 157 169 202 255 122 143 139 142 147 147 146 188 229 186 171 182 185 184 175 180
265 262 257 256 254 249 256 245 258 176 253 270 157 168 180 193 97 129 133 139 170 157 153 176 201 232 238 208 202 186 206 167
258 241 232 246 259 246 234 224 258 211 198 244 168 180 183 156 156 143 134 143 159 173 158 168 183 209 220 239 203 212 202 182
256 246 228 212 248 257 261 225 243 198 233 218 212 158 50 32 43 126 133 137 146 166 166 165 192 194 202 237 224 202 225 210
244 274 186 232 247 243 268 259 200 230 202 241 211 90 72 47 96 6 146 139 150 169 198 163 169 203 211 220 228 205 221 214
295 300 258 233 234 264 240 265 176 177 215 246 86 95 79 55 34 46 25 58 155 177 184 195 182 184 207 228 210 223 208 236
276 283 286 276 247 248 248 222 208 222 207 213 105 92 78 69 73 55 52 34 0 296 207 202 215 212 202 206 224 210 206 213
278 287 274 256 263 253 268 172 168 117 163 177 161 109 96 84 89 91 74 62 45 349 320 316 230 234 230 248 260 229 208 198
263 267 271 272 249 244 244 182 186 174 150 161 124 124 122 116 110 94 92 71 77 59 0 305 274 274 258 240 230 253 247 213